Weather History for KLVK - February, 2014

Change the Weather History Date:

Thursday, February 6, 2014

  Actual Average Record
Temperature  
Mean Temperature 51 °F 49 °F  
Max Temperature 56 °F 58 °F 73 °F (2011)
Min Temperature 46 °F 39 °F 24 °F (1989)
Degree Days  
Heating Degree Days 14 16  
Month to date heating degree days 112 99  
Since 1 July heating degree days 1324 1697  
Cooling Degree Days 0 0  
Month to date cooling degree days 0 0  
Year to date cooling degree days 0 0  
Moisture  
Dew Point 45 °F    
Average Humidity 80    
Maximum Humidity 93    
Minimum Humidity 66    
Precipitation  
Precipitation 0.43 in 0.09 in 0.96 in (2015)
Month to date precipitation 0.76 0.54  
Year to date precipitation 0.85 3.55  
Since 1 July precipitation 3.23  
Sea Level Pressure  
Sea Level Pressure 29.96 in    
Wind  
Wind Speed 6 mph (ENE)    
Max Wind Speed 14 mph    
Max Gust Speed 17 mph    
Visibility 8 miles    
Events Rain    
T = Trace of Precipitation, MM = Missing Value Source: NWS Daily Summary

Daily Weather History Graph

Daily Weather History Graph

Search for Another Location

Airport or City:

Trip Planner

Search our weather history database for the weather conditions in past years. The results will help you decide how hot, cold, wet, or windy it might be!

Date:

Astronomy

Feb. 06, 2014 Rise Set
Actual Time 7:06 AM PST 5:36 PM PST
Civil Twilight 6:39 AM PST 6:04 PM PST
Nautical Twilight 6:08 AM PST 6:35 PM PST
Astronomical Twilight 5:37 AM PST 7:05 PM PST
Moon 11:12 AM PST (2/6) 12:27 AM PST (2/6)
Length of Visible Light 11h 24m
Length of Day
10h 30m
Waxing Crescent, 50% of the Moon is Illuminated
Feb 6
Waxing Crescent
Feb 14
Full
Feb 22
Last Quarter
Mar 1
New
Mar 8
First Quarter

Hourly Weather History & Observations

Time (PST) Temp. Windchill Dew Point Humidity Pressure Visibility Wind Dir Wind Speed Gust Speed Precip Events Conditions
12:53 AM 46.9 °F - 44.1 °F 90% 30.04 in 7.0 mi ENE 4.6 mph - 0.03 in Rain Light Rain
1:53 AM 46.9 °F - 44.1 °F 90% 30.03 in 6.0 mi NE 6.9 mph - 0.05 in Rain Light Rain
2:10 AM 46.9 °F - 43.0 °F 86% 30.03 in 6.0 mi ENE 5.8 mph - 0.03 in Rain Light Rain
2:32 AM 46.0 °F 41.4 °F 43.0 °F 89% 30.02 in 5.0 mi ENE 9.2 mph - 0.06 in Rain Rain
2:53 AM 46.0 °F 41.9 °F 43.0 °F 89% 30.01 in 5.0 mi ENE 8.1 mph - 0.10 in Rain Light Rain
3:25 AM 46.0 °F 41.4 °F 44.1 °F 93% 29.99 in 5.0 mi NE 9.2 mph - 0.04 in Rain Light Rain
3:53 AM 46.0 °F 41.4 °F 43.0 °F 89% 29.99 in 5.0 mi ENE 9.2 mph - 0.06 in Rain Rain
4:19 AM 46.0 °F 41.4 °F 43.0 °F 89% 29.98 in 4.0 mi ENE 9.2 mph - 0.04 in Rain Light Rain
4:53 AM 46.0 °F 42.5 °F 44.1 °F 93% 29.98 in 6.0 mi ENE 6.9 mph - 0.05 in Rain Light Rain
5:09 AM 46.0 °F 41.4 °F 44.1 °F 93% 29.97 in 5.0 mi ENE 9.2 mph - 0.02 in Rain Light Rain
5:53 AM 46.0 °F 40.6 °F 44.1 °F 93% 29.96 in 4.0 mi ENE 11.5 mph - 0.06 in Rain Light Rain
6:53 AM 46.0 °F 41.0 °F 44.1 °F 93% 29.93 in 6.0 mi ENE 10.4 mph - 0.06 in Rain Light Rain
7:29 AM 46.0 °F 41.0 °F 44.1 °F 93% 29.92 in 10.0 mi NE 10.4 mph - 0.00 in Rain Light Rain
7:53 AM 46.9 °F - 44.1 °F 90% 29.92 in 10.0 mi ENE 11.5 mph - 0.01 in Rain Light Rain
8:53 AM 48.9 °F - 44.1 °F 83% 29.91 in 10.0 mi East 9.2 mph - 0.01 in Rain Light Rain
9:53 AM 51.1 °F - 44.1 °F 77% 29.92 in 10.0 mi East 6.9 mph - 0.00 in   Overcast
10:03 AM 51.1 °F - 43.0 °F 74% 29.92 in 6.0 mi East 4.6 mph - 0.00 in Rain Light Rain
10:31 AM 51.1 °F - 45.0 °F 80% 29.93 in 6.0 mi ENE 8.1 mph - 0.00 in   Haze
10:53 AM 51.1 °F - 44.1 °F 77% 29.93 in 7.0 mi ENE 9.2 mph - 0.00 in   Overcast
11:44 AM 53.1 °F - 44.1 °F 71% 29.90 in 10.0 mi ENE 9.2 mph - N/A   Overcast
11:53 AM 54.0 °F - 45.0 °F 72% 29.90 in 10.0 mi ENE 8.1 mph - N/A   Overcast
12:43 PM 54.0 °F - 44.1 °F 69% 29.90 in 10.0 mi ENE 6.9 mph - N/A   Overcast
12:53 PM 54.0 °F - 44.1 °F 69% 29.89 in 10.0 mi NE 8.1 mph - N/A   Overcast
1:53 PM 54.0 °F - 44.1 °F 69% 29.89 in 10.0 mi Variable 3.5 mph - N/A   Overcast
2:53 PM 55.0 °F - 45.0 °F 69% 29.91 in 10.0 mi WSW 5.8 mph - N/A   Overcast
3:53 PM 53.1 °F - 46.9 °F 80% 29.92 in 6.0 mi SSW 5.8 mph - N/A   Haze
4:53 PM 52.0 °F - 48.9 °F 89% 29.92 in 8.0 mi SSW 4.6 mph - N/A   Overcast
5:04 PM 52.0 °F - 48.9 °F 89% 29.92 in 3.0 mi SW 4.6 mph - N/A   Overcast
5:53 PM 52.0 °F - 48.9 °F 89% 29.94 in 10.0 mi SW 3.5 mph - N/A   Overcast
6:06 PM 52.0 °F - 48.9 °F 89% 29.94 in 10.0 mi WSW 3.5 mph - N/A   Overcast
6:53 PM 52.0 °F - 48.0 °F 86% 29.96 in 10.0 mi West 3.5 mph - N/A   Overcast
7:53 PM 52.0 °F - 48.0 °F 86% 29.97 in 10.0 mi West 3.5 mph - N/A   Overcast
8:53 PM 52.0 °F - 46.9 °F 83% 30.00 in 9.0 mi WSW 4.6 mph - 0.00 in Rain Light Rain
9:53 PM 51.1 °F - 46.9 °F 86% 30.01 in 9.0 mi SW 4.6 mph - 0.00 in   Overcast
10:53 PM 52.0 °F - 46.9 °F 83% 30.01 in 10.0 mi Calm Calm - N/A   Overcast
11:30 PM 51.1 °F - 46.0 °F 83% 30.00 in 10.0 mi Calm Calm - N/A   Overcast
11:53 PM 51.1 °F - 46.0 °F 83% 30.00 in 10.0 mi WSW 3.5 mph - N/A   Overcast